Lexington Weather

Lexington, Massachusetts, USA

47°F
9/19/2020 8:56am 
  • Lexington Conditions: Clear
  • Temperature: 46.8°F / 8.2°CWarmer 3.3°F than last hour.
  • Dew Point: 36.0°FIncreased 0.2°Fsince last hour.
  • Relative Humidity: 66%Decreased 8.0% since last hour.
  • Wind: Wind from ENE ENE 1 mph, 10-min avg: 1 mph, gust: 2 mph
  • Barometer: 30.26 inRising 0.02  inHg/hr Rising Slowly
  • Visibility: 10 miles
  • Rain Today: 0.00 in
  •   
Southeast Middlesex County - Special Weather Statement
 - SEE ALL NEARBY ALERTS -

Regional Weather Roundup
for Boston / Norton, MA

        
000
ASUS41 KBOX 161404
RWRBOX

REGIONAL WEATHER ROUNDUP
NATIONAL WEATHER SERVICE BOSTON/NORTON MA
1000 AM EDT WED SEP 16 2020

NOTE:  "FAIR" INDICATES FEW OR NO CLOUDS BELOW 12,000 FEET WITH NO 
SIGNIFICANT WEATHER AND/OR OBSTRUCTIONS TO VISIBILITY.

MAZALL-161500-
EASTERN MASSACHUSETTS
  
CITY           SKY/WX    TMP DP  RH WIND       PRES   REMARKS
BOSTON         PTSUNNY   64  52  64 SW15G26   30.24F                  
BEVERLY        SUNNY     63  52  67 SW13      30.22F                  
LAWRENCE       SUNNY     61  52  72 SW17G24   30.23F                  
BEDFORD        SUNNY     62  52  69 SW7       30.22S                  
BLUE HILL        N/A     61  51  70 SW21G31   30.22F                  
NORWOOD        SUNNY     66  52  60 SW13G21   30.24S                  
MARSHFIELD     SUNNY     66  55  68 SW10G21   30.24F                  
PLYMOUTH       SUNNY     65  53  65 SW14      30.26S                  
TAUNTON        PTSUNNY   67  55  65 SW8       30.26S                  
NEW BEDFORD    MOSUNNY   67  53  61 SW16G22   30.26S                  
$$

MAZALL-161500-
CAPE COD AND THE ISLANDS
  
CITY           SKY/WX    TMP DP  RH WIND       PRES   REMARKS
FALMOUTH       MOSUNNY   66  52  59 SW12G20   30.27F                  
HYANNIS        PTSUNNY   66  55  67 SW14      30.26S                  
CHATHAM        SUNNY     66  54  65 SW12G17   30.29S                  
PROVINCETOWN   SUNNY     65  56  72 S14       30.26F                  
NANTUCKET      SUNNY     65  53  65 S13       30.29S                  
MARTHAS VNYRD  MOSUNNY   66  52  60 S16       30.28S                  
$$
 
MAZALL-161500-
CENTRAL AND WESTERN MASSACHUSETTS
  
CITY           SKY/WX    TMP DP  RH WIND       PRES   REMARKS
WORCESTER      SUNNY     60  51  72 W20       30.23F                  
FITCHBURG      SUNNY     64  48  56 MISG      30.23R                  
ORANGE         SUNNY     61  46  57 SW9G24    30.24R                  
SPRINGFIELD    NOT AVBL                                               
WESTFIELD      SUNNY     62  50  64 S10       30.23S                  
NORTH ADAMS    SUNNY     59  48  67 E7        30.21F                  
PITTSFIELD     SUNNY     58  46  64 SW8G20    30.22S                  
$$
 
RIZALL-161500-
RHODE ISLAND
  
CITY           SKY/WX    TMP DP  RH WIND       PRES   REMARKS
PROVIDENCE     PTSUNNY   66  53  63 SW10      30.27R                  
NEWPORT        CLOUDY    67  53  61 S8G16     30.26S                  
BLOCK ISLAND   CLOUDY    65  52  62 SW12      30.28R                  
SMITHFIELD     MOSUNNY   63  54  72 SW9G23    30.26R                  
WESTERLY       CLOUDY    66  51  58 SW12G17   30.27S                  
$$
 
CTZALL-161500-
CONNECTICUT
  
CITY           SKY/WX    TMP DP  RH WIND       PRES   REMARKS
BRADLEY INTL   PTSUNNY   63  49  60 SW9       30.24S                  
HARTFORD       SUNNY     63  50  62 VRB6      30.25S                  
BRIDGEPORT     SUNNY     65  52  62 W7        30.25S                  
DANBURY        SUNNY     61  51  70 W7        30.26S                  
GROTON         CLOUDY    66  53  63 S17       30.25S                  
NEW HAVEN      PTSUNNY   66  56  70 W9        30.26R                  
CHESTER        NOT AVBL                                               
MERIDEN        SUNNY     64  52  64 VRB3      30.26R                  
WILLIMANTIC    MOSUNNY   59  50  72 CALM      30.26S                  
OXFORD         SUNNY     59  52  77 CALM      30.27R                  
$$

MEZ002-015-021-024-NHZ003-005-008-011-012-014-VTZ005-008-161500-
NORTHERN NEW ENGLAND
  
CITY           SKY/WX    TMP DP  RH WIND       PRES   REMARKS
PORTLAND ME    MOSUNNY   62  48  60 SW13G24   30.17F                  
BANGOR ME      MOSUNNY   63  48  58 S13G24    30.12                   
CONCORD NH     SUNNY     59  47  64 VRB5      30.19F                  
MANCHESTER NH  MOSUNNY   60  49  66 S9        30.19F                  
NASHUA NH      SUNNY     62  51  67 VRB7      30.22S                  
PORTSMOUTH NH  SUNNY     62  48  60 SW12      30.18F                  
JAFFREY NH     SUNNY     58  45  62 S12       30.22R                  
KEENE NH       SUNNY     56  48  74 CALM      30.22S                  
BURLINGTON VT  PTSUNNY   62  42  47 S18G24    30.08R                  
MT. WASHINGTON CLOUDY    46  16  29 W44G60      N/A                   
$$

NYZ052-076-161500-
EASTERN NEW YORK
  
CITY           SKY/WX    TMP DP  RH WIND       PRES   REMARKS
ALBANY         PTSUNNY   53  47  79 SE13      30.20F                  
NEW YORK CITY  CLOUDY    66  50  56 SW10      30.25S                  
$$
 
ANZALL-161500-
MARINE OBSERVATIONS
  
STATION/POSITION TIME  TEMP    WIND        PRES    VSBY  WAVE
                       AIR SEA DIR/SP/G                  HT/PER
                 (UTC) (F)     (DEG/KT/KT) (MB)    (MI)  (FT/S)
BOSTON BUOY      1350   62 63  210/ 16/ 17 1022.7F         2/ 7
BUZZARDS BAY     1300          210/ 16/ 18 1025.9R
NANTUCKET SOUND  1340      70  200/ 14/ 17   N/A
MASS BAY-STELLWA 1304   60     230/ 17/ 19 1021.5F  1 7/8  3/ 4
ISLE OF SHOALS   1300   58     220/ 18/ 20 1022.6R
S OF BLOCK IS    1326      70                N/A           4/11
$$

......................KEY.........................
  SKY/WX - SKY CONDITION/PRESENT WEATHER
  TMP    - TEMPERATURE IN FAHRENHEIT
  DWPT   - DEWPOINT IN FAHRENHEIT
  RH     - RELATIVE HUMIDITY IN PERCENT
  WIND   - DIRECTION AND SPEED IN MPH
  PRES   - MEAN SEA LEVEL PRESSURE IN INCHES OF HG
  WCI    - WIND CHILL INDEX
  VSB    - VISIBILITY IN MILES
  HX     - HEAT INDEX
  TC     - TEMPERATURE IN CELSIUS
  VRB    - VARIABLE WIND DIRECTION
  N/A    - NOT AVAILABLE
  
      

Other recent Regional Weather Roundups

Sat Sep 19, 8:04am

Sat Sep 19, 7:04am

Sat Sep 19, 6:04am

Sat Sep 19, 5:04am

Sat Sep 19, 4:04am

Sat Sep 19, 3:04am

Sat Sep 19, 2:04am

Sat Sep 19, 1:04am

Sat Sep 19, 12:04am

Fri Sep 18, 11:05pm

Fri Sep 18, 10:04pm

Fri Sep 18, 9:04pm

Fri Sep 18, 8:04pm

Fri Sep 18, 7:04pm

Fri Sep 18, 6:04pm

Fri Sep 18, 5:05pm

Fri Sep 18, 4:04pm

Fri Sep 18, 3:05pm

Fri Sep 18, 2:04pm

Fri Sep 18, 1:04pm

Fri Sep 18, 12:04pm

Fri Sep 18, 11:05am

Fri Sep 18, 10:05am

Fri Sep 18, 9:04am

Fri Sep 18, 8:04am

Fri Sep 18, 7:04am

Fri Sep 18, 6:04am

Fri Sep 18, 5:04am

Fri Sep 18, 4:04am

Fri Sep 18, 3:04am

Fri Sep 18, 2:04am

Fri Sep 18, 1:04am

Fri Sep 18, 12:04am

Thu Sep 17, 11:05pm

Thu Sep 17, 10:04pm

Thu Sep 17, 9:04pm

Thu Sep 17, 8:05pm

Thu Sep 17, 7:04pm

Thu Sep 17, 6:04pm

Thu Sep 17, 5:04pm

Thu Sep 17, 4:04pm

Thu Sep 17, 3:05pm

Thu Sep 17, 2:04pm

Thu Sep 17, 1:04pm

Thu Sep 17, 12:04pm

Thu Sep 17, 11:04am

Thu Sep 17, 10:04am

Thu Sep 17, 9:04am

Thu Sep 17, 8:04am

Thu Sep 17, 7:04am

Thu Sep 17, 6:04am

Thu Sep 17, 5:04am

Thu Sep 17, 4:04am

Thu Sep 17, 3:04am

Thu Sep 17, 2:05am

Thu Sep 17, 1:05am

Thu Sep 17, 12:04am

Wed Sep 16, 11:04pm

Wed Sep 16, 10:04pm

Wed Sep 16, 9:04pm

Wed Sep 16, 8:05pm

Wed Sep 16, 7:04pm

Wed Sep 16, 6:04pm

Wed Sep 16, 5:04pm

Wed Sep 16, 4:04pm

Wed Sep 16, 3:04pm

Wed Sep 16, 2:04pm

Wed Sep 16, 1:04pm

Wed Sep 16, 12:04pm

Wed Sep 16, 11:04am

Wed Sep 16, 9:04am

Wed Sep 16, 8:04am

Wed Sep 16, 7:04am

Wed Sep 16, 6:04am

Wed Sep 16, 5:04am

Wed Sep 16, 4:04am

Wed Sep 16, 3:04am

Wed Sep 16, 2:04am

Wed Sep 16, 1:04am

Wed Sep 16, 12:05am

Tue Sep 15, 11:04pm

Tue Sep 15, 10:04pm

Tue Sep 15, 9:04pm

Tue Sep 15, 8:04pm

Tue Sep 15, 7:04pm

Tue Sep 15, 6:04pm

Tue Sep 15, 5:04pm

Tue Sep 15, 4:05pm

Tue Sep 15, 3:04pm

Tue Sep 15, 2:04pm

Tue Sep 15, 1:04pm

Tue Sep 15, 12:04pm

Tue Sep 15, 11:04am

Tue Sep 15, 10:04am

Tue Sep 15, 9:04am

Tue Sep 15, 8:04am

Tue Sep 15, 7:04am

Tue Sep 15, 6:04am

Tue Sep 15, 5:04am

Tue Sep 15, 4:04am

Tue Sep 15, 3:04am

Tue Sep 15, 2:04am

Tue Sep 15, 1:04am

Tue Sep 15, 12:05am

Mon Sep 14, 11:04pm

Mon Sep 14, 10:04pm

Mon Sep 14, 9:04pm

Mon Sep 14, 8:04pm

Mon Sep 14, 7:04pm

Mon Sep 14, 6:04pm

Mon Sep 14, 5:04pm

Mon Sep 14, 4:05pm

Mon Sep 14, 3:04pm

Mon Sep 14, 2:05pm

Mon Sep 14, 1:04pm

Mon Sep 14, 12:04pm

Mon Sep 14, 11:04am

Mon Sep 14, 10:05am

Mon Sep 14, 9:04am

Mon Sep 14, 8:04am

Mon Sep 14, 7:04am

Mon Sep 14, 6:04am

Mon Sep 14, 5:04am

Mon Sep 14, 4:04am

Mon Sep 14, 3:04am

Mon Sep 14, 2:04am

Mon Sep 14, 1:04am

Mon Sep 14, 12:04am

Sun Sep 13, 11:05pm

Sun Sep 13, 10:04pm

Sun Sep 13, 9:04pm

Sun Sep 13, 8:04pm

Sun Sep 13, 7:05pm

Sun Sep 13, 6:05pm

Sun Sep 13, 5:05pm

Sun Sep 13, 4:04pm

Sun Sep 13, 3:04pm

Sun Sep 13, 2:04pm

Sun Sep 13, 1:04pm

Sun Sep 13, 12:04pm

Sun Sep 13, 11:05am

Sun Sep 13, 10:04am

Sun Sep 13, 9:04am

Sun Sep 13, 8:04am

Sun Sep 13, 7:04am

Sun Sep 13, 6:04am

Sun Sep 13, 5:04am

Sun Sep 13, 4:04am

Sun Sep 13, 3:04am

Sun Sep 13, 2:04am

Sun Sep 13, 1:04am

Sun Sep 13, 12:04am

Sat Sep 12, 11:04pm

Sat Sep 12, 10:04pm

Sat Sep 12, 9:04pm

Sat Sep 12, 8:04pm

Sat Sep 12, 7:05pm

Sat Sep 12, 6:04pm

Sat Sep 12, 5:04pm

Sat Sep 12, 4:05pm

Sat Sep 12, 3:04pm

Sat Sep 12, 2:04pm

Sat Sep 12, 1:05pm

Sat Sep 12, 12:04pm

Sat Sep 12, 11:04am

Sat Sep 12, 10:04am

Sat Sep 12, 9:04am

Meta data:

ID: 180c4d9c-21f1-45a7-9bb1-d1b18fc9a6fc
Link: https://api.weather.gov/products/180c4d9c-21f1-45a7-9bb1-d1b18fc9a6fc